Location: Brahman Valley
(40.6513°N, 111.8855°W)
Time: 13:25:19
(UTC+00:00)

COSMOS 2251 DEB - Visible Passes

Search period start: 24 September 2021 00:00
Search period end: 04 October 2021 00:00
Orbit: 683 x 819 km, 74.0° (Epoch: 24 September)

Date Brightness Start Highest point End Pass type
(mag) Time Alt. Az. Time Alt. Az. Time Alt. Az.
24 Sep ? 01:37:35 10° N 01:42:52 49° ENE 01:47:57 10° SE visible
24 Sep ? 03:20:15 10° NW 03:24:07 20° W 03:27:53 10° SW visible
25 Sep ? 02:37:20 10° NW 02:42:18 38° W 02:47:07 10° SSW visible
26 Sep ? 01:54:56 10° NNW 02:00:21 74° WSW 02:05:33 10° S visible
27 Sep ? 02:56:03 10° WNW 02:59:18 17° W 03:02:31 10° SW visible
28 Sep ? 02:12:51 10° NW 02:17:33 31° W 02:22:05 10° SSW visible
30 Sep ? 02:32:05 10° WNW 02:34:30 13° W 02:36:52 10° WSW visible
01 Oct ? 01:48:27 10° NW 01:52:47 26° W 01:56:59 10° SSW visible
03 Oct ? 02:08:52 10° W 02:09:40 10° W 02:10:27 10° W visible
